Regional Weather Roundup
Issued by NWS

Home | Current Version | Previous Version | Text Only | Print | Product List | Glossary On
Versions: 1 2 3 4 5 6 7 8 9 10 11 12 13 14 15 16 17 18 19 20 21 22 23 24 25 26 27 28 29 30 31 32 33 34 35 36 37 38 39 40 41 42 43 44 45 46 47 48 49 50
041
ASUS44 KLIX 162210
RWRLA
LOUISIANA WEATHER ROUNDUP
NATIONAL WEATHER SERVICE NEW ORLEANS LA
500 PM CDT TUE SEP 16 2014

NOTE: "FAIR" INDICATES FEW OR NO CLOUDS BELOW 12,000 FEET WITH NO
      SIGNIFICANT WEATHER AND/OR OBSTRUCTIONS TO VISIBILITY.
      SKY/WX - SKY CONDITION AND SIGNIFICANT WEATHER.
      TMP - AIR TEMPERATURE.    DP   - DEWPOINT TEMPERATURE.
      RH  - RELATIVE HUMIDITY.  PRES - PRESSURE.
      HX  - HEAT INDEX.         WCI  - WIND CHILL INDEX.

*  THESE STATIONS ARE NOT NWS OR FAA STATIONS AND ARE NOT UNDER
   NWS QUALITY CONTROL.

LAZ040-048-061>063-065-066-069-162300-
SOUTHEAST LOUISIANA

CITY           SKY/WX    TMP DP  RH WIND       PRES   REMARKS
N.O. AUDUBON     N/A     79  78  98 MISG        N/A
N.O. INTL ARPT LGT RAIN  76  73  91 SW6       30.00R
N.O. LAKEFRONT LGT RAIN  80  76  87 SW10      29.99S
N.O. DOWNTOWN* MOCLDY    81  73  78 SW7       30.01R
SLIDELL        CLOUDY    76  73  91 S5        29.98F THUNDER
BATON ROUGE    CLOUDY    78  74  87 N8        30.00R
BOOTHVILLE     PTSUNNY   82  77  84 SW14      29.99F
BELLE CHASSE   LGT RAIN  80  74  81 SW8       30.00R
BOGALUSA*      FAIR      79  69  72 S12       29.99S
GALLIANO*      NOT AVBL
NEW ROADS*     FAIR      77  72  85 S3        30.00R
GONZALES*      TSTM      73  73 100 S8        30.00S
HAMMOND*       CLOUDY    77  72  83 SW6       30.01R
HOUMA*         PTSUNNY   82  72  69 SW8       30.01R
PORT FOURCHON* NOT AVBL

$$

LAZ041-044-053-054-162300-
SOUTHWEST LOUISIANA

CITY           SKY/WX    TMP DP  RH WIND       PRES   REMARKS
LAKE CHARLES   CLOUDY    79  72  79 CALM      29.97F
LAFAYETTE      MOSUNNY   82  74  76 S5        30.00R
PATTERSON      PTSUNNY   82  75  78 CALM      30.05R
SALT POINT       N/A     85  77  77 VRB6      30.00R HX  95
NEW IBERIA     PTSUNNY   83  76  79 S7        30.01R
CHENAULT AIRPK NOT AVBL

$$

LAZ027-028-162300-
CENTRAL LOUISIANA

CITY           SKY/WX    TMP DP  RH WIND       PRES   REMARKS
FORT POLK      MOSUNNY   85  77  77 SW3       29.98R HX  95
ALEXANDRIA INT PTSUNNY   90  73  57 VRB6      29.95F HX  98
ALEXANDRIA     PTSUNNY   92  72  51 NE6       29.96F HX  99

$$

LAZ001-002-162300-
NORTHWEST LOUISIANA

CITY           SKY/WX    TMP DP  RH WIND       PRES   REMARKS
SHREVEPORT     PTSUNNY   91  67  44 N3        29.97F
BARKSDALE AFB  PTSUNNY   91  68  47 VRB6      29.98F
DTN SHREVEPORT PTSUNNY   90  69  50 NE5       29.98F

$$

LAZ014-016-162300-
NORTHEAST LOUISIANA

CITY           SKY/WX    TMP DP  RH WIND       PRES   REMARKS
MONROE         MOSUNNY   88  70  55 NE3       29.99F
TALLULAH       PTSUNNY   85  67  54 N7        29.98F

$$




USA.gov is the U.S. government's official web portal to all federal, state and local government web resources and services.